TimeAST,TemperatureF,Dew PointF,Humidity,Sea Level PressureIn,VisibilityMPH,Wind Direction,Wind SpeedMPH,Gust SpeedMPH,PrecipitationIn,Events,Conditions,WindDirDegrees,DateUTC
12:53 AM,80.1,75.9,87,30.01,10.0,East,8.1,-,N/A,,Clear,100,2012-10-09 04:53:00
1:53 AM,81.0,75.9,85,29.98,10.0,East,5.8,-,N/A,,Clear,80,2012-10-09 05:53:00
2:20 AM,80.6,75.2,84,29.98,10.0,ESE,10.4,-,0.00,Rain,Light Rain,120,2012-10-09 06:20:00
2:53 AM,78.1,73.0,84,29.98,10.0,ENE,3.5,-,0.00,,Overcast,70,2012-10-09 06:53:00
3:53 AM,79.0,75.9,90,29.97,10.0,ESE,4.6,-,N/A,,Clear,110,2012-10-09 07:53:00
4:53 AM,80.1,75.9,87,29.98,10.0,SE,3.5,-,N/A,,Clear,130,2012-10-09 08:53:00
5:53 AM,79.0,75.9,90,29.98,10.0,East,5.8,-,N/A,,Clear,100,2012-10-09 09:53:00
6:53 AM,82.0,75.9,82,29.99,10.0,East,4.6,-,N/A,,Clear,90,2012-10-09 10:53:00
7:53 AM,84.0,77.0,79,29.99,10.0,ESE,9.2,-,N/A,,Clear,110,2012-10-09 11:53:00
8:53 AM,84.9,75.9,74,30.00,10.0,ESE,9.2,-,N/A,,Clear,110,2012-10-09 12:53:00
9:13 AM,84.2,75.2,74,30.00,10.0,East,5.8,-,N/A,,Mostly Cloudy,100,2012-10-09 13:13:00
9:53 AM,86.0,77.0,74,30.01,10.0,SE,11.5,-,N/A,,Mostly Cloudy,140,2012-10-09 13:53:00
10:00 AM,87.8,77.0,70,30.01,10.0,SSE,11.5,-,N/A,,Scattered Clouds,150,2012-10-09 14:00:00
10:53 AM,87.1,77.0,72,30.00,10.0,SSE,12.7,-,N/A,,Partly Cloudy,150,2012-10-09 14:53:00
11:53 AM,84.9,79.0,82,29.99,10.0,SSE,9.2,-,0.05,,Overcast,160,2012-10-09 15:53:00
12:53 PM,81.0,77.0,88,29.97,2.0,ENE,8.1,-,0.09,Rain,Heavy Rain,70,2012-10-09 16:53:00
1:06 PM,82.4,77.0,84,29.95,6.0,Variable,4.6,-,0.02,Rain,Light Rain,0,2012-10-09 17:06:00
1:27 PM,82.4,78.8,89,29.95,9.0,East,9.2,-,0.02,Rain,Light Rain,90,2012-10-09 17:27:00
1:53 PM,84.9,75.9,74,29.95,10.0,ESE,9.2,-,0.02,,Scattered Clouds,110,2012-10-09 17:53:00
2:53 PM,87.1,75.9,69,29.93,10.0,SSE,12.7,-,N/A,,Partly Cloudy,150,2012-10-09 18:53:00
3:22 PM,80.6,77.0,89,29.92,4.0,East,8.1,-,0.04,Rain,Rain,80,2012-10-09 19:22:00
3:53 PM,84.0,75.9,76,29.93,10.0,ESE,5.8,-,0.05,,Scattered Clouds,110,2012-10-09 19:53:00
4:53 PM,84.9,75.9,74,29.93,10.0,East,6.9,-,N/A,,Mostly Cloudy,90,2012-10-09 20:53:00
5:19 PM,80.6,75.2,84,29.93,2.5,Calm,Calm,-,0.06,Rain,Light Rain,0,2012-10-09 21:19:00
5:26 PM,82.4,77.0,84,29.93,10.0,East,4.6,-,0.06,Rain,Light Rain,80,2012-10-09 21:26:00
5:53 PM,82.0,77.0,85,29.94,10.0,East,5.8,-,0.06,,Clear,80,2012-10-09 21:53:00
6:53 PM,81.0,77.0,88,29.95,10.0,East,5.8,-,N/A,,Clear,90,2012-10-09 22:53:00
7:53 PM,81.0,77.0,88,29.96,10.0,East,4.6,-,N/A,,Clear,90,2012-10-09 23:53:00
8:53 PM,81.0,77.0,88,29.98,10.0,East,3.5,-,N/A,,Clear,90,2012-10-10 00:53:00
9:53 PM,81.0,77.0,88,29.98,10.0,East,4.6,-,N/A,,Clear,90,2012-10-10 01:53:00
10:53 PM,81.0,77.0,88,29.99,10.0,Calm,Calm,-,0.00,,Partly Cloudy,0,2012-10-10 02:53:00
11:53 PM,80.1,73.9,81,29.98,10.0,Calm,Calm,-,N/A,,Clear,0,2012-10-10 03:53:00